Location: Newark
(44.5869°N, 123.1150°W)
Time: 20:36:39
(UTC+00:00)

N. Korean satellite - Pass Details

Date: 02 October 2020
Orbit: 452 x 505 km, 97.2° (Epoch: 28 October)

Event Time Altitude Azimuth Distance (km) Brightness Sun altitude
Rises 13:14:27 0° 21° (NNE) 2,568 10.6 -11.1°
Reaches altitude 10° 13:16:43 10° 32° (NNE) 1,672 9.8 -10.7°
Maximum altitude 13:19:57 31° 96° (E) 865 8.7 -10.1°
Drops below altitude 10° 13:23:06 10° 160° (SSE) 1,630 9.4 -9.6°
Sets 13:25:16 0° 171° (S) 2,492 10.2 -9.2°
